TimeCST,TemperatureF,Dew PointF,Humidity,Sea Level PressureIn,VisibilityMPH,Wind Direction,Wind SpeedMPH,Gust SpeedMPH,PrecipitationIn,Events,Conditions,WindDirDegrees,DateUTC
12:50 AM,50.0,48.2,94,30.18,10.0,Calm,Calm,-,N/A,Fog,Shallow Fog,0,2013-01-21 06:50:00
1:50 AM,50.0,48.2,94,30.18,10.0,Calm,Calm,-,N/A,Fog,Shallow Fog,0,2013-01-21 07:50:00
2:50 AM,50.0,48.2,94,30.18,1.0,Calm,Calm,-,N/A,,Scattered Clouds,0,2013-01-21 08:50:00
3:50 AM,50.0,50.0,100,30.18,0.5,Calm,Calm,-,N/A,Fog,Fog,0,2013-01-21 09:50:00
4:50 AM,50.0,50.0,100,30.17,10.0,Calm,Calm,-,N/A,Fog,Fog,0,2013-01-21 10:50:00
5:50 AM,50.0,50.0,100,30.17,10.0,Calm,Calm,-,N/A,Fog,Fog,0,2013-01-21 11:50:00
6:50 AM,50.0,50.0,100,30.18,0.2,Calm,Calm,-,N/A,Fog,Fog,0,2013-01-21 12:50:00
7:50 AM,48.2,48.2,100,30.21,0.2,Calm,Calm,-,N/A,Fog,Fog,0,2013-01-21 13:50:00
8:50 AM,50.0,48.2,94,30.22,4.0,Calm,Calm,-,N/A,,Mostly Cloudy,0,2013-01-21 14:50:00
9:50 AM,59.0,57.2,94,30.26,10.0,Calm,Calm,-,N/A,,Mostly Cloudy,0,2013-01-21 15:50:00
10:50 AM,64.4,57.2,77,30.27,10.0,Calm,Calm,-,N/A,,Mostly Cloudy,0,2013-01-21 16:50:00
11:50 AM,68.0,57.2,68,30.25,10.0,Calm,Calm,-,N/A,,Mostly Cloudy,0,2013-01-21 17:50:00
12:50 PM,69.8,57.2,64,30.23,10.0,Calm,Calm,-,N/A,,Mostly Cloudy,0,2013-01-21 18:50:00
1:50 PM,71.6,57.2,60,30.20,10.0,Calm,Calm,-,N/A,,Mostly Cloudy,0,2013-01-21 19:50:00
2:50 PM,73.4,57.2,57,30.20,10.0,East,4.6,-,N/A,,Mostly Cloudy,90,2013-01-21 20:50:00
3:59 PM,75.2,50.0,41,30.19,10.0,ESE,5.8,-,N/A,,Mostly Cloudy,120,2013-01-21 21:59:00
4:50 PM,71.6,46.4,41,30.18,10.0,ESE,5.8,-,N/A,,Mostly Cloudy,120,2013-01-21 22:50:00
5:50 PM,68.0,44.6,43,30.19,10.0,SE,4.6,-,N/A,,Mostly Cloudy,130,2013-01-21 23:50:00
6:50 PM,60.8,44.6,55,30.20,10.0,SSE,5.8,-,N/A,,Scattered Clouds,150,2013-01-22 00:50:00
7:50 PM,59.0,48.2,67,30.20,10.0,South,4.6,-,N/A,,Scattered Clouds,180,2013-01-22 01:50:00
8:50 PM,57.2,46.4,67,30.22,10.0,South,4.6,-,N/A,,Scattered Clouds,180,2013-01-22 02:50:00
9:50 PM,55.4,46.4,72,30.22,10.0,SSW,3.5,-,N/A,,Scattered Clouds,200,2013-01-22 03:50:00
10:50 PM,53.6,44.6,72,30.22,10.0,SSW,2.3,-,N/A,,Scattered Clouds,210,2013-01-22 04:50:00
11:50 PM,51.8,44.6,76,30.22,10.0,Calm,Calm,-,N/A,,Partly Cloudy,0,2013-01-22 05:50:00